sat.trackr.live / text

‹ back to catalog

STARLINK-1209

NORAD 45206 · 2020-012AE

PAYLOAD ACTIVE UNKNOWN

§ Identity

Operator
Country
US
Launch date
2020-02-17
Launch site
AFETR
Launch vehicle
Mass (kg)
RCS (m²)

Purposes: comms

External: N2YO · Heavens-Above · Gunter

§ Orbital elements

Epoch: 2026-05-24T21:24:10.783008Z

Period
92.07 min
Inclination
53.0407°
Eccentricity
0.0009169
Mean motion
15.64062063 rev/d
Perigee alt
369.7 km
Apogee alt
382.1 km
Semi-major
6,754.1 km
B*
1.0465e-3
RAAN
323.4120°
Arg perigee
176.7191°
Mean anomaly
183.3884°
Rev number
34,679

§ Raw data

STARLINK-12091 45206U 20012AE  26144.89179147  .00101787  00000+0  10465-2 0  99962 45206  53.0407 323.4120 0009169 176.7191 183.3884 15.64062063346797

JSON: /api/v1/satellites/45206 · /tle

For live sub-satellite position, see the globe view (requires WebGL).

§ Visibility from observer

Set your observer location to see the next 7 days of passes ≥ 10°. The values pass through the URL so the page stays shareable.

No JS? Fill the form by hand. The geolocation button needs JavaScript.